Back to catalog

STARLINK-11179

AliveCommunicationsVLEO
NORAD 60190·PAYLOAD·🇺🇸 United States

Launched Jul 3, 2024 from Cape Canaveral Space Force Station

Loading…

Next Passes (next 24 hours)

TLE

FreshSource: CelesTrak SupGP

Epoch: Sep 14, 2026, 22:14 UTC

1 60190C 24124H   26257.92687500 -.00010594  00000+0 -87246-4 0  2576
2 60190  53.1567 308.6393 0001110  90.9389 225.9574 15.69720036    12

Track STARLINK-11179 in real time with AllMySat

Download on the App Store